Regional Weather Roundup
Issued by NWS Little Rock, AR

Home | Current Version | Previous Version | Graphics & Text | Print | Product List | Glossary On
Versions: 1 2 3 4 5 6 7 8 9 10 11 12 13 14 15 16 17 18 19 20 21 22 23 24 25 26 27 28 29 30 31 32 33 34 35 36 37 38 39 40 41 42 43 44 45 46 47 48
000
ASUS44 KLZK 211905
RWRLZK

WEATHER ROUNDUP FOR ARKANSAS
NATIONAL WEATHER SERVICE LITTLE ROCK AR
100 PM CST SUN DEC 21 2014

NOTE: "FAIR" INDICATES FEW OR NO CLOUDS BELOW 12,000 FEET WITH NO
SIGNIFICANT WEATHER AND/OR OBSTRUCTIONS TO VISIBILITY.

ARZ001-003-010-029-212000-
NORTHWEST ARKANSAS

CITY           SKY/WX    TMP DP  RH WIND       PRES   REMARKS
FAYETTEVILLE   CLOUDY    43  38  82 SE12      29.98F
FORT SMITH     PTSUNNY   50  38  63 E12       29.99F
HARRISON       CLOUDY    42  35  76 SE12      30.01F
BENTONVILLE    CLOUDY    45  37  76 S12G17    29.97F
ROGERS         CLOUDY    44  39  82 SE13      29.97F
SILOAM SPGS    CLOUDY    45  36  70 S15       29.97F
HIGHFILL       CLOUDY    45  39  79 S16       29.96F
SPRINGDALE     CLOUDY    45  39  81 S8        29.99F
$$

ARZ004-005-016-212000-
NORTH CENTRAL ARKANSAS

CITY           SKY/WX    TMP DP  RH WIND       PRES   REMARKS
BATESVILLE     PTSUNNY   52  36  54 E10       30.07F
FLIPPIN        CLOUDY    43  34  70 CALM      30.04F
MTN HOME       CLOUDY    43  35  73 SE6       30.03F
$$

ARZ040-041-212000-
WEST CENTRAL ARKANSAS

CITY           SKY/WX    TMP DP  RH WIND       PRES   REMARKS
MENA           CLOUDY    52  39  62 S7        30.01F
MOUNT IDA      CLOUDY    50  38  63 VRB7      30.01F
$$

ARZ009-017-025-026-028-212000-
NORTHEAST ARKANSAS

CITY           SKY/WX    TMP DP  RH WIND       PRES   REMARKS
CORNING          N/A     45  32  61 SE5       30.11F
JONESBORO      CLOUDY    46  38  73 E7        30.10F
NEWPORT        CLOUDY    49  36  61 S5        30.12F
WALNUT RIDGE   CLOUDY    45  30  57 E5        30.10F
BLYTHEVILLE    MOSUNNY   50  35  56 VRB3      30.11F
$$

ARZ022-023-033-042-044-212000-
CENTRAL ARKANSAS

CITY           SKY/WX    TMP DP  RH WIND       PRES   REMARKS
LITTLE ROCK    MOSUNNY   53  34  48 S10       30.08F
N LITTLE ROCK  MOSUNNY   51  37  59 S9        30.08F
JACKSONVILLE   SUNNY     53  36  50 S9        30.07F
SEARCY         MOSUNNY   53  38  56 SE6       30.09F
HOT SPRINGS    CLOUDY    52  37  56 SE7       30.05F
RUSSELLVILLE   CLOUDY    48  36  63 VRB3      30.05F
CLINTON        CLOUDY    48  37  66 CALM      30.08F
$$

ARZ036-212000-
EAST ARKANSAS

CITY           SKY/WX    TMP DP  RH WIND       PRES   REMARKS
WEST MEMPHIS   SUNNY     54  35  48 E6        30.08F
$$

ARZ050-053-066-070-073-212000-
SOUTHWEST ARKANSAS

CITY           SKY/WX    TMP DP  RH WIND       PRES   REMARKS
ARKADELPHIA    FAIR      55  42  61 S7        30.07F
CAMDEN         SUNNY     59  37  44 MISG      30.07F
TEXARKANA      CLOUDY    51  41  68 VRB6      30.05F
EL DORADO      MOSUNNY   56  40  55 VRB7      30.06F
DE QUEEN       CLOUDY    50  40  68 SE8       30.02F
$$

ARZ056-057-069-212000-
SOUTHEAST ARKANSAS

CITY           SKY/WX    TMP DP  RH WIND       PRES   REMARKS
PINE BLUFF     SUNNY     53  36  52 E12       30.07F
STUTTGART      SUNNY     52  36  54 SE12      30.07F
MONTICELLO     SUNNY     56  36  47 S8        30.06F

$$





USA.gov is the U.S. government's official web portal to all federal, state and local government web resources and services.